Iron Mountain, MI

6:52 PM CDT on May 26, 2017 (GMT -0500)
Ford

Weather History for KIMT - December, 2013

Change the Weather History Date:

Saturday, December 21, 2013

  Actual Average Record
Temperature  
Mean Temperature 19 °F -  
Max Temperature 24 °F 26 °F 48 °F (1967)
Min Temperature 14 °F 9 °F -25 °F (1958)
Degree Days  
Heating Degree Days 46    
Moisture  
Dew Point 14 °F    
Average Humidity 81    
Maximum Humidity 92    
Minimum Humidity 69    
Precipitation  
Precipitation 0.00 in - - ()
Sea Level Pressure  
Sea Level Pressure 29.95 in    
Wind  
Wind Speed 3 mph (North)    
Max Wind Speed 6 mph    
Max Gust Speed -    
Visibility 10 miles    
Events      
Averages and records for this station are not official NWS values.
T = Trace of Precipitation, MM = Missing Value Source: NWS Daily Summary

Daily Weather History Graph

Daily Weather History Graph

Search for Another Location

Airport or City:

Trip Planner

Search our weather history database for the weather conditions in past years. The results will help you decide how hot, cold, wet, or windy it might be!

Date:

Astronomy

Dec. 21, 2013 Rise Set
Actual Time 7:30 AM CST 4:10 PM CST
Civil Twilight 6:56 AM CST 4:45 PM CST
Nautical Twilight 6:18 AM CST 5:23 PM CST
Astronomical Twilight 5:42 AM CST 5:59 PM CST
Moon 8:38 PM CST (12/21) 9:45 AM CST (12/21)
Length of Visible Light 9h 48m
Length of Day
8h 39m
Waning Gibbous, 84% of the Moon is Illuminated
Dec 21
Waning Gibbous
Dec 25
Last Quarter
Jan 1
New
Jan 7
First Quarter
Jan 15
Full

Hourly Weather History & Observations

Time (CST) Temp. Windchill Dew Point Humidity Pressure Visibility Wind Dir Wind Speed Gust Speed Precip Events Conditions
12:54 AM 19.0 °F 13.9 °F 15.1 °F 85% 29.87 in 10.0 mi North 3.5 mph - N/A   Overcast
1:54 AM 19.0 °F 13.9 °F 15.1 °F 85% 29.88 in 10.0 mi NNW 3.5 mph - N/A   Overcast
2:54 AM 18.0 °F 12.7 °F 15.1 °F 88% 29.89 in 10.0 mi NW 3.5 mph - N/A   Overcast
3:54 AM 18.0 °F - 15.1 °F 88% 29.90 in 10.0 mi Calm Calm - N/A   Overcast
4:54 AM 18.0 °F - 14.0 °F 84% 29.91 in 10.0 mi Calm Calm - N/A   Overcast
5:54 AM 16.0 °F - 12.9 °F 88% 29.89 in 10.0 mi Calm Calm - N/A   Overcast
6:54 AM 16.0 °F - 12.9 °F 88% 29.91 in 10.0 mi Calm Calm - N/A   Overcast
7:54 AM 14.0 °F 8.2 °F 12.0 °F 92% 29.93 in 10.0 mi NNW 3.5 mph - N/A   Overcast
8:54 AM 14.0 °F 6.5 °F 12.0 °F 92% 29.93 in 10.0 mi North 4.6 mph - N/A   Overcast
9:54 AM 16.0 °F 8.8 °F 10.9 °F 81% 29.97 in 10.0 mi North 4.6 mph - N/A   Clear
10:54 AM 19.9 °F 14.9 °F 14.0 °F 78% 29.96 in 10.0 mi North 3.5 mph - N/A   Clear
11:54 AM 21.9 °F 15.7 °F 15.1 °F 75% 29.94 in 10.0 mi North 4.6 mph - N/A   Clear
12:54 PM 21.9 °F 15.7 °F 15.1 °F 75% 29.95 in 10.0 mi North 4.6 mph - N/A   Clear
1:54 PM 24.1 °F - 15.1 °F 69% 29.97 in 10.0 mi Calm Calm - N/A   Clear
2:54 PM 24.1 °F 18.2 °F 16.0 °F 71% 29.99 in 10.0 mi NNE 4.6 mph - N/A   Clear
3:54 PM 21.0 °F 14.6 °F 15.1 °F 78% 29.99 in 10.0 mi North 4.6 mph - N/A   Scattered Clouds
4:04 PM 19.4 °F 12.8 °F 14.0 °F 80% 29.93 in 10.0 mi North 4.6 mph - N/A   Mostly Cloudy
4:54 PM 21.0 °F - 15.1 °F 78% 29.99 in 10.0 mi Calm Calm - N/A   Mostly Cloudy
5:07 PM 19.4 °F - 15.8 °F 86% 29.93 in 10.0 mi Calm Calm - N/A   Scattered Clouds
5:54 PM 21.0 °F 14.6 °F 15.1 °F 78% 30.01 in 10.0 mi North 4.6 mph - N/A   Clear
6:54 PM 21.0 °F 14.6 °F 16.0 °F 81% 30.00 in 10.0 mi Variable 4.6 mph - N/A   Clear
7:54 PM 21.0 °F - 16.0 °F 81% 30.02 in 10.0 mi Calm Calm - N/A   Clear
8:54 PM 19.0 °F 13.9 °F 14.0 °F 81% 30.00 in 10.0 mi NNE 3.5 mph - N/A   Partly Cloudy
9:23 PM 21.2 °F 14.9 °F 15.8 °F 80% 29.93 in 10.0 mi NNE 4.6 mph - N/A   Overcast
9:42 PM 19.4 °F 14.3 °F 15.8 °F 86% 29.92 in 10.0 mi NNE 3.5 mph - N/A   Overcast
9:54 PM 21.0 °F 16.2 °F 15.1 °F 78% 29.98 in 10.0 mi NNE 3.5 mph - N/A   Overcast
10:54 PM 21.0 °F 14.6 °F 12.9 °F 71% 29.95 in 10.0 mi NE 4.6 mph - N/A   Partly Cloudy
11:54 PM 19.9 °F 12.1 °F 14.0 °F 78% 29.93 in 10.0 mi North 5.8 mph - N/A   Clear